753  
ASUS41 KCTP 192110  
RWRCTP  
 
REGIONAL WEATHER ROUNDUP  
NATIONAL WEATHER SERVICE STATE COLLEGE PA  
400 PM EST SUN NOV 19 2017  
 
NOTE: "FAIR" INDICATES FEW OR NO CLOUDS BELOW 12,000 FEET WITH NO  
SIGNIFICANT WEATHER AND/OR S TO VISIBILITY
.  
 
* = STATION THAT DOES NOT REPORT PRECIPITATION /E.G. RAIN...SNOW...ETC/  
THUNDER OR FOG.
 
 
PAZ002>004-007>009-013>016-020>023-029>032-192200-  
WESTERN PENNSYLVANIA  
 
CITY SKY/WX TMP DP RH WIND PRES REMARKS
 
ERIE CLOUDY 37 27 67 NW18G25 29.79R  
MEADVILLE LGT SNOW 32 30 92 W7 29.79R FOG  
FRANKLIN* FLURRIES 32 29 88 W10 29.79R  
NEW CASTLE CLOUDY 37 26 64 W12G20 29.84R  
BEAVER COUNTY CLOUDY N/A N/A N/A W9 29.84R  
BUTLER* CLOUDY 36 28 73 W8 29.83R  
PITTSBURGH INT LGT SNOW 36 30 79 NW16 29.84R  
PITTSBURGH CLOUDY 36 27 69 W13G24 29.83R  
INDIANA* CLOUDY 37 28 70 NW12G18 29.82R  
LATROBE MOCLDY 37 28 70 W17 29.83R  
WASHINGTON CO* FLURRIES 34 32 92 W14 29.89R  

 
 
PAZ004>006-010>012-017>019-024>028-033>037-041-042-045-046-049>053-192200-  
CENTRAL PENNSYLVANIA  
 
CITY SKY/WX TMP DP RH WIND PRES REMARKS
 
BRADFORD LGT SNOW 32 29 88 W12G21 29.68R FOG  
DUBOIS MOCLDY 33 26 75 W16G22 29.73R  
CLEARFIELD MOCLDY 37 28 70 W15G24 29.73R  
JOHNSTOWN CLOUDY 32 25 75 W14G25 29.73R  
ALTOONA CLOUDY 38 26 62 W15G25 29.76R  
STATE COLLEGE CLOUDY 36 30 80 W12G23 29.73R  
WILLIAMSPORT CLOUDY 44 30 57 W12 29.68R  
SELINSGROVE MOCLDY 44 25 47 NW13G21 29.72R  
FT INDIANTOWN PTCLDY 44 23 44 NW15G29 29.70R  
CAPITAL CITY CLOUDY 45 25 45 W15G24 29.73R  
HARRISBURG MOCLDY 45 29 53 W14G28 29.72R  
YORK CLOUDY 44 28 53 W10 29.73R  

 
 
PAZ038>040-043-044-047-048-054-055-060>062-067>071-192200-  
EASTERN PENNSYLVANIA  
 
CITY SKY/WX TMP DP RH WIND PRES REMARKS
 
SCRANTON CLOUDY 43 26 51 NW14G22 29.63R  
MOUNT POCONO NOT AVBL  
ALLENTOWN CLOUDY 48 29 47 W14G26 29.63R  
QUAKERTOWN* CLOUDY 46 30 53 W9G20 29.65R  
READING MOCLDY 46 29 51 NW22G30 29.68R  
LANCASTER CLOUDY 45 29 53 NW21G29 29.71R  
COATESVILLE MOCLDY 45 27 49 NW18G26 29.70R  
POTTSTOWN CLOUDY 45 28 51 W10G22 29.68R  
BLUE BELL CLOUDY 45 28 53 W9G24 29.67R  
DOYLESTOWN CLOUDY 47 29 49 W15G28 29.63R  
WILLOW GROVE NOT AVBL  
NORTH PHILA MOCLDY 50 29 44 W17G30 29.66R  
PHILADELPHIA MOCLDY 50 26 39 W17G28 29.68R  

 
 
 
CLICK HERE TO GO TO PREVIOUS BULLETINS.

The Nexlab PA Page Main Text Page